LGR888 CYCY-CMR2

Flight info

Callsign LGR888
Flight time N/A
Altitude 8000
Route YCY DCT 71N070W
Aircraft R66/L-SFG/C

Departure

Time 2026-04-27 08:18
Airport Clyde River Airport (CYCY)

Arrival

Time N/A
Airport CMR2
Time Latitude Longitude Altitude Speed Heading
2026-04-27 08:01 70.48487 -68.51313 52 ft 0 kts 11°
2026-04-27 08:03 70.48496 -68.51306 53 ft 0 kts 11°
2026-04-27 08:03 70.48502 -68.51300 53 ft 0 kts 11°
2026-04-27 08:03 70.48503 -68.51299 53 ft 0 kts 12°
2026-04-27 08:14 70.48501 -68.51318 64 ft 5 kts 358°
2026-04-27 08:14 70.48510 -68.51399 106 ft 7 kts 340°
2026-04-27 08:15 70.48585 -68.51488 146 ft 16 kts
2026-04-27 08:15 70.48657 -68.51516 165 ft 12 kts 54°
2026-04-27 08:15 70.48741 -68.51354 179 ft 10 kts 40°
2026-04-27 08:15 70.48864 -68.51197 202 ft 13 kts 36°
2026-04-27 08:16 70.48878 -68.51254 179 ft 7 kts 12°
2026-04-27 08:16 70.48927 -68.51169 114 ft 13 kts 17°
2026-04-27 08:16 70.49038 -68.50988 120 ft 15 kts 317°
2026-04-27 08:16 70.49052 -68.51050 79 ft 3 kts 311°
2026-04-27 08:17 70.49049 -68.51086 58 ft 0 kts 311°
2026-04-27 08:17 70.49048 -68.51088 63 ft 1 kts 313°
2026-04-27 08:17 70.49182 -68.51008 196 ft 46 kts
2026-04-27 08:17 70.49504 -68.50620 542 ft 54 kts 27°
2026-04-27 08:18 70.49796 -68.50057 929 ft 49 kts 23°
2026-04-27 08:18 70.50185 -68.49299 916 ft 88 kts 24°
2026-04-27 08:18 70.50712 -68.48321 1005 ft 91 kts 21°
2026-04-27 08:18 70.51254 -68.47335 1108 ft 89 kts 16°
2026-04-27 08:19 70.51813 -68.46555 1224 ft 87 kts 13°
2026-04-27 08:19 70.52367 -68.45905 1329 ft 86 kts
2026-04-27 08:19 70.52934 -68.45367 1439 ft 84 kts
2026-04-27 08:19 70.53491 -68.44958 1548 ft 82 kts
2026-04-27 08:20 70.54051 -68.44668 1661 ft 80 kts 359°
2026-04-27 08:20 70.54600 -68.44501 1769 ft 79 kts 356°
2026-04-27 08:20 70.55140 -68.44455 1881 ft 77 kts 353°
2026-04-27 08:20 70.55674 -68.44525 1995 ft 76 kts 349°
2026-04-27 08:21 70.56191 -68.44728 2110 ft 75 kts 346°
2026-04-27 08:21 70.56697 -68.45049 2222 ft 74 kts 342°
2026-04-27 08:21 70.57147 -68.45779 2342 ft 76 kts 317°
2026-04-27 08:21 70.57369 -68.47291 2460 ft 83 kts 293°
2026-04-27 08:22 70.57486 -68.49000 2569 ft 84 kts 292°
2026-04-27 08:22 70.57610 -68.50725 2682 ft 85 kts 292°
2026-04-27 08:22 70.57737 -68.52453 2802 ft 85 kts 292°
2026-04-27 08:22 70.57868 -68.54172 2908 ft 85 kts 292°
2026-04-27 08:23 70.58007 -68.55927 3025 ft 86 kts 292°
2026-04-27 08:23 70.58143 -68.57664 3135 ft 86 kts 292°
2026-04-27 08:23 70.58274 -68.59418 3241 ft 86 kts 292°
2026-04-27 08:23 70.58395 -68.61157 3350 ft 85 kts 292°
2026-04-27 08:24 70.58521 -68.62914 3461 ft 85 kts 292°
2026-04-27 08:24 70.58644 -68.64639 3567 ft 85 kts 292°
2026-04-27 08:24 70.58772 -68.66396 3675 ft 85 kts 292°
2026-04-27 08:24 70.58898 -68.68131 3782 ft 85 kts 292°
2026-04-27 08:25 70.59023 -68.69863 3892 ft 85 kts 292°
2026-04-27 08:25 70.59148 -68.71592 4002 ft 84 kts 292°
2026-04-27 08:25 70.59269 -68.73289 4110 ft 83 kts 292°
2026-04-27 08:25 70.59392 -68.74998 4219 ft 83 kts 292°
2026-04-27 08:26 70.59513 -68.76695 4324 ft 83 kts 292°
2026-04-27 08:26 70.59618 -68.78400 4425 ft 84 kts 291°
2026-04-27 08:26 70.59700 -68.79974 4684 ft 73 kts 292°
2026-04-27 08:26 70.59781 -68.81589 4775 ft 82 kts 291°
2026-04-27 08:27 70.59879 -68.83309 4888 ft 84 kts 291°
2026-04-27 08:27 70.59979 -68.85033 4998 ft 83 kts 291°
2026-04-27 08:27 70.60083 -68.86724 5092 ft 83 kts 291°
2026-04-27 08:27 70.60191 -68.88415 5195 ft 83 kts 291°
2026-04-27 08:28 70.60296 -68.90108 5312 ft 82 kts 291°
2026-04-27 08:28 70.60400 -68.91808 5421 ft 81 kts 291°
2026-04-27 08:28 70.60503 -68.93463 5531 ft 81 kts 291°
2026-04-27 08:28 70.60605 -68.95133 5651 ft 81 kts 291°
2026-04-27 08:29 70.60708 -68.96812 5751 ft 80 kts 291°
2026-04-27 08:29 70.60816 -68.98469 5832 ft 81 kts 291°
2026-04-27 08:29 70.60925 -69.00124 5934 ft 82 kts 289°
2026-04-27 08:29 70.61002 -69.01806 6039 ft 82 kts 285°
2026-04-27 08:30 70.61041 -69.03547 6179 ft 83 kts 283°
2026-04-27 08:30 70.61042 -69.05270 6299 ft 83 kts 279°
2026-04-27 08:30 70.61004 -69.07018 6403 ft 83 kts 277°
2026-04-27 08:30 70.61002 -69.08699 6488 ft 78 kts 291°
2026-04-27 08:31 70.61102 -69.10298 6588 ft 77 kts 291°
2026-04-27 08:31 70.61205 -69.11855 6686 ft 76 kts 291°
2026-04-27 08:31 70.61314 -69.13425 6816 ft 76 kts 291°
2026-04-27 08:31 70.61471 -69.14900 6940 ft 74 kts 297°
2026-04-27 08:32 70.61639 -69.16382 7048 ft 74 kts 297°
2026-04-27 08:32 70.61807 -69.17847 7143 ft 74 kts 297°
2026-04-27 08:32 70.61974 -69.19314 7260 ft 74 kts 297°
2026-04-27 08:32 70.62140 -69.20766 7375 ft 73 kts 297°
2026-04-27 08:33 70.62306 -69.22224 7497 ft 72 kts 298°
2026-04-27 08:33 70.62470 -69.23653 7609 ft 72 kts 298°
2026-04-27 08:33 70.62632 -69.25063 7707 ft 71 kts 298°
2026-04-27 08:33 70.62791 -69.26458 7821 ft 71 kts 299°
2026-04-27 08:34 70.62955 -69.27872 7934 ft 71 kts 299°
2026-04-27 08:34 70.63116 -69.29278 8058 ft 71 kts 298°
2026-04-27 08:34 70.63282 -69.30703 8116 ft 75 kts 297°
2026-04-27 08:34 70.63459 -69.32242 8124 ft 81 kts 296°
2026-04-27 08:35 70.63644 -69.33874 8128 ft 83 kts 296°
2026-04-27 08:35 70.63833 -69.35541 8135 ft 85 kts 296°
2026-04-27 08:35 70.64027 -69.37264 8136 ft 86 kts 296°
2026-04-27 08:35 70.64192 -69.38983 8135 ft 91 kts 283°
2026-04-27 08:36 70.64070 -69.40949 8153 ft 96 kts 268°
2026-04-27 08:36 70.63950 -69.42952 8148 ft 97 kts 270°
2026-04-27 08:36 70.63866 -69.44963 8135 ft 96 kts 273°
2026-04-27 08:36 70.63794 -69.46935 8140 ft 95 kts 274°
2026-04-27 08:37 70.63721 -69.48914 8153 ft 95 kts 274°
2026-04-27 08:37 70.63653 -69.50917 8149 ft 96 kts 273°
2026-04-27 08:37 70.63592 -69.52911 8168 ft 96 kts 273°
2026-04-27 08:37 70.63531 -69.54935 8165 ft 96 kts 274°
2026-04-27 08:38 70.63469 -69.56946 8176 ft 97 kts 274°
2026-04-27 08:38 70.63409 -69.58963 8167 ft 97 kts 274°
2026-04-27 08:38 70.63344 -69.60983 8171 ft 96 kts 274°
2026-04-27 08:38 70.63277 -69.62980 8162 ft 95 kts 274°
2026-04-27 08:39 70.63210 -69.64984 8177 ft 96 kts 274°
2026-04-27 08:39 70.63143 -69.66967 8168 ft 96 kts 272°
2026-04-27 08:39 70.63075 -69.68967 8153 ft 96 kts 273°
2026-04-27 08:39 70.63007 -69.70955 8172 ft 97 kts 272°
2026-04-27 08:40 70.62942 -69.72987 8199 ft 98 kts 272°
2026-04-27 08:40 70.62886 -69.75073 8168 ft 98 kts 272°
2026-04-27 08:40 70.62832 -69.77046 8157 ft 97 kts 273°
2026-04-27 08:40 70.62775 -69.79024 8151 ft 96 kts 273°
2026-04-27 08:41 70.62718 -69.81026 8149 ft 97 kts 273°
2026-04-27 08:41 70.62665 -69.83050 8145 ft 98 kts 273°
2026-04-27 08:41 70.62614 -69.85081 8124 ft 98 kts 273°
2026-04-27 08:41 70.62559 -69.87090 8096 ft 96 kts 273°
2026-04-27 08:42 70.62498 -69.89102 8095 ft 95 kts 273°
2026-04-27 08:42 70.62437 -69.91082 8089 ft 95 kts 273°
2026-04-27 08:42 70.62380 -69.93040 8078 ft 96 kts 273°
2026-04-27 08:42 70.62322 -69.95018 8060 ft 95 kts 273°
2026-04-27 08:43 70.62261 -69.97000 8070 ft 100 kts 273°
2026-04-27 08:43 70.62200 -69.99135 8063 ft 105 kts 273°
2026-04-27 08:43 70.62145 -70.01363 8058 ft 107 kts 273°
2026-04-27 08:43 70.62096 -70.03504 8095 ft 108 kts 272°
2026-04-27 08:44 70.62050 -70.05827 8034 ft 111 kts 273°
2026-04-27 08:44 70.62007 -70.08137 8023 ft 111 kts 273°
2026-04-27 08:44 70.61958 -70.10409 7996 ft 109 kts 274°
2026-04-27 08:44 70.61897 -70.12654 7994 ft 106 kts 274°
2026-04-27 08:45 70.61912 -70.14843 7998 ft 104 kts 281°
2026-04-27 08:45 70.62045 -70.16981 7977 ft 101 kts 300°
2026-04-27 08:45 70.62210 -70.19025 7993 ft 105 kts 282°
2026-04-27 08:45 70.62285 -70.21245 7979 ft 106 kts 282°
2026-04-27 08:46 70.62358 -70.23450 7975 ft 106 kts 282°
2026-04-27 08:46 70.62431 -70.25637 7989 ft 106 kts 282°
2026-04-27 08:46 70.62505 -70.27856 8000 ft 107 kts 282°
2026-04-27 08:46 70.62580 -70.30096 8011 ft 108 kts 282°
2026-04-27 08:47 70.62656 -70.32363 8010 ft 108 kts 282°
2026-04-27 08:47 70.62726 -70.34591 8029 ft 108 kts 281°
2026-04-27 08:47 70.62789 -70.36874 8031 ft 109 kts 279°
2026-04-27 08:47 70.62833 -70.39131 8027 ft 107 kts 280°
2026-04-27 08:48 70.62881 -70.41362 8051 ft 108 kts 279°
2026-04-27 08:48 70.62937 -70.43644 8067 ft 109 kts 279°
2026-04-27 08:48 70.62995 -70.45911 8050 ft 108 kts 280°
2026-04-27 08:48 70.63051 -70.48167 8073 ft 107 kts 279°
2026-04-27 08:49 70.63108 -70.50414 8082 ft 108 kts 280°
2026-04-27 08:49 70.63166 -70.52651 8076 ft 108 kts 280°
2026-04-27 08:49 70.63223 -70.54928 8063 ft 107 kts 280°
2026-04-27 08:49 70.63277 -70.57158 8055 ft 107 kts 280°
2026-04-27 08:50 70.63328 -70.59361 8048 ft 106 kts 280°
2026-04-27 08:50 70.63373 -70.61504 8088 ft 106 kts 279°
2026-04-27 08:50 70.63429 -70.63751 8058 ft 108 kts 280°
2026-04-27 08:50 70.63486 -70.65998 8035 ft 107 kts 279°
2026-04-27 08:51 70.63538 -70.68240 8039 ft 107 kts 279°
2026-04-27 08:51 70.63593 -70.70485 8023 ft 107 kts 279°
2026-04-27 08:51 70.63648 -70.72720 8018 ft 106 kts 279°
2026-04-27 08:51 70.63702 -70.74915 8007 ft 106 kts 279°
2026-04-27 08:52 70.63759 -70.77124 7987 ft 105 kts 279°
2026-04-27 08:52 70.63812 -70.79312 7993 ft 105 kts 279°
2026-04-27 08:52 70.63870 -70.81509 7983 ft 106 kts 279°
2026-04-27 08:52 70.63930 -70.83717 7965 ft 105 kts 279°
2026-04-27 08:53 70.63990 -70.85931 7956 ft 105 kts 279°
2026-04-27 08:53 70.64050 -70.88135 7948 ft 105 kts 279°
2026-04-27 08:53 70.64111 -70.90335 7941 ft 106 kts 279°
2026-04-27 08:53 70.64175 -70.92535 7940 ft 106 kts 279°
2026-04-27 08:54 70.64242 -70.94755 7932 ft 106 kts 279°
2026-04-27 08:54 70.64307 -70.96967 7931 ft 106 kts 279°
2026-04-27 08:54 70.64371 -70.99168 7928 ft 106 kts 279°
2026-04-27 08:54 70.64434 -71.01376 7943 ft 106 kts 279°
2026-04-27 08:55 70.64508 -71.03597 7948 ft 107 kts 282°
2026-04-27 08:55 70.64604 -71.05840 7952 ft 108 kts 282°
2026-04-27 08:55 70.64700 -71.08064 7965 ft 108 kts 282°
2026-04-27 08:55 70.64798 -71.10307 7972 ft 108 kts 282°
2026-04-27 08:56 70.64897 -71.12553 7979 ft 109 kts 282°
2026-04-27 08:56 70.65002 -71.14832 7980 ft 109 kts 282°
2026-04-27 08:56 70.65105 -71.17071 7990 ft 108 kts 282°
2026-04-27 08:56 70.65211 -71.19312 8006 ft 109 kts 282°
2026-04-27 08:57 70.65424 -71.23830 8014 ft 108 kts 282°
2026-04-27 08:57 70.65527 -71.26112 8020 ft 110 kts 282°
2026-04-27 08:57 70.65631 -71.28400 7972 ft 109 kts 282°
2026-04-27 08:58 70.65730 -71.30640 7970 ft 106 kts 282°
2026-04-27 08:58 70.65828 -71.32834 7950 ft 105 kts 282°
2026-04-27 08:58 70.65921 -71.35010 7935 ft 103 kts 283°
2026-04-27 08:58 70.66010 -71.37145 7941 ft 103 kts 282°
2026-04-27 08:59 70.66101 -71.39291 7936 ft 103 kts 282°
2026-04-27 08:59 70.66191 -71.41453 7932 ft 103 kts 282°
2026-04-27 08:59 70.66283 -71.43578 7935 ft 104 kts 282°
2026-04-27 08:59 70.66380 -71.45766 7918 ft 105 kts 282°
2026-04-27 09:00 70.66477 -71.47963 7904 ft 106 kts 282°
2026-04-27 09:00 70.66573 -71.50170 7894 ft 106 kts 282°
2026-04-27 09:00 70.66666 -71.52360 7901 ft 106 kts 282°
2026-04-27 09:00 70.66760 -71.54523 7925 ft 103 kts 282°
2026-04-27 09:01 70.66849 -71.56670 7932 ft 103 kts 282°
2026-04-27 09:01 70.66938 -71.58814 7935 ft 103 kts 282°
2026-04-27 09:01 70.67027 -71.60950 7928 ft 102 kts 282°
2026-04-27 09:01 70.67117 -71.63048 7931 ft 100 kts 282°
2026-04-27 09:02 70.67203 -71.65135 7945 ft 100 kts 282°
2026-04-27 09:02 70.67292 -71.67257 7924 ft 104 kts 281°
2026-04-27 09:02 70.67388 -71.69327 8017 ft 97 kts 282°
2026-04-27 09:02 70.67489 -71.71471 7944 ft 103 kts 281°
2026-04-27 09:03 70.67592 -71.73559 8038 ft 94 kts 282°
2026-04-27 09:03 70.67687 -71.75567 7980 ft 101 kts 281°
2026-04-27 09:03 70.67792 -71.77683 7960 ft 101 kts 281°
2026-04-27 09:03 70.67895 -71.79778 7967 ft 100 kts 281°
2026-04-27 09:04 70.67996 -71.81828 7979 ft 99 kts 281°
2026-04-27 09:04 70.68096 -71.83903 7976 ft 100 kts 281°
2026-04-27 09:04 70.68200 -71.85998 7970 ft 100 kts 282°
2026-04-27 09:04 70.68308 -71.88069 7976 ft 100 kts 282°
2026-04-27 09:05 70.68413 -71.90125 7977 ft 100 kts 281°
2026-04-27 09:05 70.68520 -71.92213 7973 ft 101 kts 282°
2026-04-27 09:05 70.68632 -71.94299 7974 ft 101 kts 282°
2026-04-27 09:05 70.68743 -71.96394 7984 ft 101 kts 282°
2026-04-27 09:06 70.68854 -71.98500 7987 ft 101 kts 281°
2026-04-27 09:06 70.68967 -72.00584 7989 ft 102 kts 282°
2026-04-27 09:06 70.69083 -72.02721 8001 ft 103 kts 282°
2026-04-27 09:06 70.69202 -72.04848 8014 ft 103 kts 282°
2026-04-27 09:07 70.69319 -72.07013 8003 ft 104 kts 282°
2026-04-27 09:07 70.69435 -72.09179 8027 ft 105 kts 282°
2026-04-27 09:07 70.69551 -72.11385 8020 ft 106 kts 282°
2026-04-27 09:07 70.69663 -72.13543 8020 ft 105 kts 282°
2026-04-27 09:08 70.69775 -72.15729 8036 ft 103 kts 282°
2026-04-27 09:08 70.69884 -72.17852 8092 ft 104 kts 282°
2026-04-27 09:08 70.69997 -72.20020 8112 ft 105 kts 282°
2026-04-27 09:08 70.70115 -72.22206 8109 ft 104 kts 282°
2026-04-27 09:09 70.70229 -72.24322 8156 ft 103 kts 282°
2026-04-27 09:09 70.70338 -72.26453 8105 ft 102 kts 282°
2026-04-27 09:09 70.70442 -72.28565 8076 ft 100 kts 282°
2026-04-27 09:09 70.70537 -72.30622 8043 ft 98 kts 282°
2026-04-27 09:10 70.70627 -72.32641 8031 ft 98 kts 282°
2026-04-27 09:10 70.70720 -72.34692 7991 ft 98 kts 282°
2026-04-27 09:10 70.70908 -72.38771 7969 ft 98 kts 282°
2026-04-27 09:11 70.71004 -72.40814 7947 ft 98 kts 282°
2026-04-27 09:11 70.71247 -72.42692 7935 ft 95 kts 297°
2026-04-27 09:11 70.71510 -72.44530 7925 ft 96 kts 296°
2026-04-27 09:11 70.71764 -72.46398 7919 ft 96 kts 295°
2026-04-27 09:12 70.72007 -72.48289 7903 ft 97 kts 294°
2026-04-27 09:12 70.72244 -72.50201 7889 ft 97 kts 294°
2026-04-27 09:12 70.72471 -72.52092 7903 ft 97 kts 294°
2026-04-27 09:12 70.72699 -72.54041 7900 ft 99 kts 293°
2026-04-27 09:13 70.72927 -72.56016 7895 ft 99 kts 292°
2026-04-27 09:13 70.73151 -72.58003 7895 ft 99 kts 292°
2026-04-27 09:13 70.73371 -72.59975 7895 ft 100 kts 292°
2026-04-27 09:13 70.73592 -72.61968 7893 ft 100 kts 292°
2026-04-27 09:14 70.73811 -72.63961 7890 ft 101 kts 292°
2026-04-27 09:14 70.74033 -72.66003 7884 ft 101 kts 291°
2026-04-27 09:14 70.74252 -72.68015 7882 ft 101 kts 291°
2026-04-27 09:14 70.74466 -72.70010 7888 ft 100 kts 291°
2026-04-27 09:15 70.74683 -72.72029 7887 ft 100 kts 291°
2026-04-27 09:15 70.74897 -72.74032 7887 ft 100 kts 291°
2026-04-27 09:15 70.75114 -72.76047 7889 ft 100 kts 291°
2026-04-27 09:15 70.75327 -72.78055 7888 ft 101 kts 291°
2026-04-27 09:16 70.75541 -72.80069 7887 ft 100 kts 291°
2026-04-27 09:16 70.75754 -72.82079 7890 ft 100 kts 291°
2026-04-27 09:16 70.75967 -72.84080 7888 ft 100 kts 291°
2026-04-27 09:16 70.76182 -72.86102 7888 ft 101 kts 291°
2026-04-27 09:17 70.76395 -72.88114 7884 ft 101 kts 291°
2026-04-27 09:17 70.76611 -72.90151 7876 ft 102 kts 291°
2026-04-27 09:17 70.76827 -72.92209 7869 ft 102 kts 290°
2026-04-27 09:17 70.77044 -72.94268 7866 ft 102 kts 290°
2026-04-27 09:18 70.77255 -72.96278 7869 ft 101 kts 290°
2026-04-27 09:18 70.77470 -72.98328 7871 ft 101 kts 290°
2026-04-27 09:18 70.77685 -73.00377 7879 ft 101 kts 290°
2026-04-27 09:18 70.77898 -73.02396 7885 ft 101 kts 290°
2026-04-27 09:19 70.78111 -73.04446 7891 ft 102 kts 290°
2026-04-27 09:19 70.78324 -73.06485 7892 ft 102 kts 291°
2026-04-27 09:19 70.78539 -73.08545 7891 ft 103 kts 291°
2026-04-27 09:19 70.78754 -73.10619 7893 ft 102 kts 291°
2026-04-27 09:20 70.78969 -73.12678 7900 ft 102 kts 290°
2026-04-27 09:20 70.79182 -73.14723 7910 ft 102 kts 290°
2026-04-27 09:20 70.79395 -73.16773 7913 ft 102 kts 290°
2026-04-27 09:20 70.79609 -73.18829 7915 ft 102 kts 290°
2026-04-27 09:21 70.79821 -73.20888 7919 ft 102 kts 290°
2026-04-27 09:21 70.80032 -73.22927 7927 ft 102 kts 290°
2026-04-27 09:21 70.80248 -73.25014 7932 ft 103 kts 290°
2026-04-27 09:21 70.80460 -73.27066 7938 ft 103 kts 290°
2026-04-27 09:22 70.80673 -73.29144 7938 ft 103 kts 290°
2026-04-27 09:22 70.80886 -73.31213 7940 ft 102 kts 290°
2026-04-27 09:22 70.81096 -73.33269 7940 ft 102 kts 290°
2026-04-27 09:22 70.81306 -73.35318 7940 ft 101 kts 290°
2026-04-27 09:23 70.81515 -73.37367 7942 ft 101 kts 290°
2026-04-27 09:23 70.81721 -73.39381 7951 ft 101 kts 290°
2026-04-27 09:23 70.81932 -73.41448 7952 ft 101 kts 290°
2026-04-27 09:23 70.82140 -73.43475 7956 ft 102 kts 290°
2026-04-27 09:24 70.82355 -73.45566 7959 ft 103 kts 289°
2026-04-27 09:24 70.82568 -73.47659 7957 ft 104 kts 289°
2026-04-27 09:24 70.82780 -73.49754 7958 ft 104 kts 289°
2026-04-27 09:24 70.82923 -73.51157 7960 ft 104 kts 289°
2026-04-27 09:25 70.83207 -73.53958 7967 ft 105 kts 289°
2026-04-27 09:25 70.83421 -73.56068 7961 ft 105 kts 289°
2026-04-27 09:25 70.83634 -73.58196 7961 ft 104 kts 289°
2026-04-27 09:25 70.83845 -73.60291 7967 ft 105 kts 289°
2026-04-27 09:26 70.84060 -73.62421 7968 ft 104 kts 289°
2026-04-27 09:26 70.84273 -73.64526 7968 ft 105 kts 289°
2026-04-27 09:26 70.84484 -73.66640 7974 ft 104 kts 288°
2026-04-27 09:26 70.84697 -73.68762 7982 ft 104 kts 288°
2026-04-27 09:27 70.84908 -73.70856 7982 ft 105 kts 288°
2026-04-27 09:27 70.85122 -73.72993 7990 ft 104 kts 288°
2026-04-27 09:27 70.85332 -73.75088 7994 ft 105 kts 288°
2026-04-27 09:27 70.85545 -73.77226 8002 ft 105 kts 288°
2026-04-27 09:28 70.85758 -73.79363 8006 ft 105 kts 288°
2026-04-27 09:28 70.85970 -73.81480 8016 ft 106 kts 288°
2026-04-27 09:28 70.86186 -73.83640 8033 ft 107 kts 287°
2026-04-27 09:28 70.86401 -73.85812 8042 ft 108 kts 287°
2026-04-27 09:29 70.86621 -73.88026 8070 ft 109 kts 287°
2026-04-27 09:29 70.86839 -73.90223 8049 ft 108 kts 286°
2026-04-27 09:29 70.87051 -73.92395 8057 ft 105 kts 287°
2026-04-27 09:29 70.87260 -73.94514 8083 ft 105 kts 286°
2026-04-27 09:30 70.87470 -73.96656 8082 ft 104 kts 287°
2026-04-27 09:30 70.87676 -73.98750 8102 ft 106 kts 287°
2026-04-27 09:30 70.87888 -74.00917 8112 ft 106 kts 287°
2026-04-27 09:30 70.88100 -74.03068 8102 ft 106 kts 287°
2026-04-27 09:31 70.88313 -74.05226 8070 ft 106 kts 287°
2026-04-27 09:31 70.88523 -74.07378 8044 ft 105 kts 287°
2026-04-27 09:31 70.88731 -74.09499 8070 ft 105 kts 287°
2026-04-27 09:31 70.88942 -74.11636 8047 ft 106 kts 287°
2026-04-27 09:32 70.89154 -74.13805 8039 ft 106 kts 286°
2026-04-27 09:32 70.89365 -74.15970 8025 ft 106 kts 287°
2026-04-27 09:32 70.89571 -74.18110 8012 ft 105 kts 287°
2026-04-27 09:32 70.89775 -74.20228 8020 ft 104 kts 288°
2026-04-27 09:33 70.89983 -74.22366 8004 ft 105 kts 288°
2026-04-27 09:33 70.90187 -74.24470 7993 ft 104 kts 288°
2026-04-27 09:33 70.90390 -74.26581 8014 ft 104 kts 288°
2026-04-27 09:33 70.90595 -74.28687 8005 ft 104 kts 288°
2026-04-27 09:34 70.90800 -74.30814 7997 ft 103 kts 288°
2026-04-27 09:34 70.91003 -74.32931 8004 ft 103 kts 288°
2026-04-27 09:34 70.91202 -74.35014 8012 ft 103 kts 289°
2026-04-27 09:34 70.91410 -74.37136 8013 ft 105 kts 288°
2026-04-27 09:35 70.91617 -74.39283 8008 ft 105 kts 288°
2026-04-27 09:35 70.91819 -74.41412 8012 ft 105 kts 288°
2026-04-27 09:35 70.92024 -74.43554 8008 ft 105 kts 288°
2026-04-27 09:35 70.92231 -74.45719 8012 ft 105 kts 288°
2026-04-27 09:36 70.92432 -74.47847 7999 ft 105 kts 288°
2026-04-27 09:36 70.92636 -74.49985 8005 ft 104 kts 288°
2026-04-27 09:36 70.92838 -74.52107 8001 ft 104 kts 288°
2026-04-27 09:36 70.93037 -74.54207 7990 ft 103 kts 288°
2026-04-27 09:37 70.93236 -74.56309 7985 ft 102 kts 289°
2026-04-27 09:37 70.93433 -74.58396 7989 ft 101 kts 289°
2026-04-27 09:37 70.93631 -74.60467 7988 ft 102 kts 288°
2026-04-27 09:37 70.93827 -74.62537 7978 ft 102 kts 288°
2026-04-27 09:38 70.94025 -74.64644 7971 ft 101 kts 289°
2026-04-27 09:38 70.94219 -74.66710 7971 ft 101 kts 288°
2026-04-27 09:38 70.94411 -74.68753 7975 ft 101 kts 288°
2026-04-27 09:38 70.94608 -74.70837 7965 ft 102 kts 288°
2026-04-27 09:39 70.94801 -74.72914 7967 ft 101 kts 288°
2026-04-27 09:39 70.94994 -74.74973 7964 ft 101 kts 288°
2026-04-27 09:39 70.95187 -74.77030 7978 ft 102 kts 288°
2026-04-27 09:39 70.95383 -74.79124 7980 ft 102 kts 288°
2026-04-27 09:40 70.95579 -74.81226 7983 ft 103 kts 288°
2026-04-27 09:40 70.95776 -74.83353 7981 ft 103 kts 288°
2026-04-27 09:40 70.95972 -74.85450 7973 ft 104 kts 288°
2026-04-27 09:40 70.96169 -74.87587 7973 ft 103 kts 288°
2026-04-27 09:41 70.96363 -74.89691 7968 ft 103 kts 288°
2026-04-27 09:41 70.96555 -74.91786 7967 ft 101 kts 289°
2026-04-27 09:41 70.96744 -74.93845 7990 ft 101 kts 289°
2026-04-27 09:41 70.96942 -74.95948 7977 ft 104 kts 288°
2026-04-27 09:42 70.97139 -74.98074 7978 ft 104 kts 288°
2026-04-27 09:42 70.97334 -75.00197 7987 ft 103 kts 288°
2026-04-27 09:42 70.97527 -75.02300 7974 ft 102 kts 288°
2026-04-27 09:42 70.97717 -75.04373 7976 ft 100 kts 288°
2026-04-27 09:43 70.97905 -75.06413 7979 ft 100 kts 288°
2026-04-27 09:43 70.98091 -75.08458 7983 ft 100 kts 288°
2026-04-27 09:43 70.98280 -75.10516 7988 ft 99 kts 288°
2026-04-27 09:43 70.98466 -75.12550 7993 ft 99 kts 289°
2026-04-27 09:44 70.98650 -75.14579 7999 ft 99 kts 289°
2026-04-27 09:44 70.98836 -75.16621 7992 ft 99 kts 289°
2026-04-27 09:44 70.99021 -75.18660 7992 ft 100 kts 289°
2026-04-27 09:44 70.99205 -75.20702 7999 ft 99 kts 290°
2026-04-27 09:45 70.99393 -75.22750 7993 ft 100 kts 289°
2026-04-27 09:45 70.99580 -75.24814 7984 ft 100 kts 289°
2026-04-27 09:45 70.99766 -75.26882 7991 ft 100 kts 290°
2026-04-27 09:45 70.99950 -75.28915 7984 ft 100 kts 289°
2026-04-27 09:46 71.00136 -75.30965 7986 ft 100 kts 289°
2026-04-27 09:46 71.00320 -75.33021 7990 ft 100 kts 289°
2026-04-27 09:46 71.00505 -75.35082 7986 ft 99 kts 289°
2026-04-27 09:46 71.00683 -75.37075 7992 ft 97 kts 290°
2026-04-27 09:47 71.00865 -75.39101 7992 ft 97 kts 290°
2026-04-27 09:47 71.01047 -75.41109 7991 ft 98 kts 289°
2026-04-27 09:47 71.01226 -75.43112 7988 ft 98 kts 289°
2026-04-27 09:47 71.01405 -75.45128 7994 ft 98 kts 290°
2026-04-27 09:48 71.01583 -75.47137 7993 ft 98 kts 290°
2026-04-27 09:48 71.01762 -75.49151 7979 ft 97 kts 290°
2026-04-27 09:48 71.01940 -75.51144 7999 ft 98 kts 290°
2026-04-27 09:48 71.02118 -75.53156 7997 ft 98 kts 290°
2026-04-27 09:49 71.02299 -75.55195 8009 ft 99 kts 290°
2026-04-27 09:49 71.02478 -75.57230 8011 ft 99 kts 290°
2026-04-27 09:49 71.02660 -75.59287 8002 ft 99 kts 290°
2026-04-27 09:49 71.02837 -75.61293 8015 ft 98 kts 291°
2026-04-27 09:50 71.03017 -75.63323 8006 ft 97 kts 290°
2026-04-27 09:50 71.03193 -75.65314 8029 ft 97 kts 289°
2026-04-27 09:50 71.03370 -75.67316 8026 ft 98 kts 289°
2026-04-27 09:50 71.03546 -75.69349 8021 ft 96 kts 289°
2026-04-27 09:51 71.03719 -75.71319 8036 ft 96 kts 290°
2026-04-27 09:51 71.03892 -75.73290 8044 ft 96 kts 290°
2026-04-27 09:51 71.04067 -75.75288 8041 ft 97 kts 289°
2026-04-27 09:51 71.04240 -75.77290 8042 ft 96 kts 290°
2026-04-27 09:52 71.04413 -75.79280 8048 ft 96 kts 290°
2026-04-27 09:52 71.04583 -75.81241 8050 ft 95 kts 291°
2026-04-27 09:52 71.04752 -75.83186 8037 ft 95 kts 291°
2026-04-27 09:52 71.04919 -75.85127 8056 ft 93 kts 291°
2026-04-27 09:53 71.05091 -75.87085 8057 ft 95 kts 291°
2026-04-27 09:53 71.05259 -75.89021 8060 ft 94 kts 291°
2026-04-27 09:53 71.05428 -75.90962 8065 ft 95 kts 290°
2026-04-27 09:53 71.05597 -75.92913 8049 ft 94 kts 290°
2026-04-27 09:54 71.05765 -75.94855 8058 ft 92 kts 290°
2026-04-27 09:54 71.05931 -75.96770 8071 ft 94 kts 290°
2026-04-27 09:54 71.06099 -75.98732 8077 ft 96 kts 290°
2026-04-27 09:54 71.06269 -76.00719 8074 ft 95 kts 290°
2026-04-27 09:55 71.06436 -76.02676 8054 ft 94 kts 290°
2026-04-27 09:55 71.06599 -76.04592 8078 ft 92 kts 291°
2026-04-27 09:55 71.06930 -76.08480 8062 ft 93 kts 291°
2026-04-27 09:56 71.07093 -76.10372 8029 ft 90 kts 291°
2026-04-27 09:56 71.07255 -76.12260 8048 ft 91 kts 291°
2026-04-27 09:56 71.07417 -76.14167 8040 ft 93 kts 291°
2026-04-27 09:56 71.07579 -76.16080 8035 ft 92 kts 291°
2026-04-27 09:57 71.07740 -76.17984 8026 ft 91 kts 291°
2026-04-27 09:57 71.07900 -76.19872 8012 ft 91 kts 291°
2026-04-27 09:57 71.08060 -76.21746 8019 ft 90 kts 291°
2026-04-27 09:57 71.08218 -76.23615 8024 ft 92 kts 291°
2026-04-27 09:58 71.08382 -76.25550 8011 ft 92 kts 291°
2026-04-27 09:58 71.08542 -76.27456 8011 ft 93 kts 291°
2026-04-27 09:58 71.08704 -76.29382 8010 ft 91 kts 292°
2026-04-27 09:58 71.08862 -76.31273 8020 ft 92 kts 292°
2026-04-27 09:59 71.09026 -76.33209 8009 ft 93 kts 291°
2026-04-27 09:59 71.09185 -76.35128 8003 ft 92 kts 292°
2026-04-27 09:59 71.09344 -76.37022 8011 ft 91 kts 292°
2026-04-27 09:59 71.09504 -76.38947 7995 ft 92 kts 291°
2026-04-27 10:00 71.09660 -76.40839 7992 ft 90 kts 292°
2026-04-27 10:00 71.09816 -76.42700 7996 ft 89 kts 292°
2026-04-27 10:00 71.09971 -76.44556 8003 ft 91 kts 292°
2026-04-27 10:00 71.10129 -76.46461 8003 ft 91 kts 292°
2026-04-27 10:01 71.10285 -76.48343 7995 ft 90 kts 292°
2026-04-27 10:01 71.10442 -76.50219 7998 ft 90 kts 292°
2026-04-27 10:01 71.10599 -76.52113 8019 ft 92 kts 292°
2026-04-27 10:01 71.10757 -76.54031 8015 ft 94 kts 292°
2026-04-27 10:02 71.10919 -76.56000 8008 ft 93 kts 292°
2026-04-27 10:02 71.11075 -76.57902 8011 ft 92 kts 292°
2026-04-27 10:02 71.11235 -76.59828 8009 ft 92 kts 292°
2026-04-27 10:02 71.11394 -76.61764 8014 ft 92 kts 291°
2026-04-27 10:03 71.11549 -76.63677 8009 ft 92 kts 292°
2026-04-27 10:03 71.11705 -76.65575 8020 ft 92 kts 291°
2026-04-27 10:03 71.11863 -76.67507 8021 ft 92 kts 291°
2026-04-27 10:03 71.12021 -76.69436 8026 ft 93 kts 291°
2026-04-27 10:04 71.12176 -76.71345 8023 ft 93 kts 291°
2026-04-27 10:04 71.12336 -76.73300 8021 ft 92 kts 291°
2026-04-27 10:04 71.12491 -76.75221 8029 ft 92 kts 291°
2026-04-27 10:04 71.12646 -76.77132 8035 ft 92 kts 291°
2026-04-27 10:05 71.12801 -76.79049 8016 ft 91 kts 292°
2026-04-27 10:05 71.12953 -76.80938 8022 ft 91 kts 292°
2026-04-27 10:05 71.13110 -76.82857 8042 ft 93 kts 292°
2026-04-27 10:05 71.13268 -76.84824 8029 ft 95 kts 292°
2026-04-27 10:06 71.13424 -76.86758 8015 ft 92 kts 292°
2026-04-27 10:06 71.13577 -76.88660 8018 ft 90 kts 292°
2026-04-27 10:06 71.13731 -76.90554 8037 ft 91 kts 292°
2026-04-27 10:06 71.13886 -76.92476 8038 ft 93 kts 291°
2026-04-27 10:07 71.14039 -76.94385 8013 ft 91 kts 291°
2026-04-27 10:07 71.14191 -76.96295 8020 ft 90 kts 291°
2026-04-27 10:07 71.14343 -76.98196 8037 ft 92 kts 291°
2026-04-27 10:07 71.14496 -77.00111 8029 ft 92 kts 291°
2026-04-27 10:08 71.14650 -77.02045 8037 ft 92 kts 291°
2026-04-27 10:08 71.14801 -77.03947 8026 ft 92 kts 292°
2026-04-27 10:08 71.14953 -77.05862 8030 ft 91 kts 292°
2026-04-27 10:08 71.15102 -77.07739 8017 ft 91 kts 292°
2026-04-27 10:09 71.15255 -77.09655 8027 ft 91 kts 292°
2026-04-27 10:09 71.15405 -77.11547 8040 ft 91 kts 292°
2026-04-27 10:09 71.15556 -77.13465 8034 ft 92 kts 292°
2026-04-27 10:09 71.15707 -77.15385 8027 ft 91 kts 292°
2026-04-27 10:10 71.15859 -77.17289 8023 ft 91 kts 291°
2026-04-27 10:10 71.16007 -77.19174 8021 ft 91 kts 291°
2026-04-27 10:10 71.16157 -77.21076 8027 ft 91 kts 291°
2026-04-27 10:10 71.16307 -77.22997 8031 ft 91 kts 291°
2026-04-27 10:11 71.16457 -77.24899 8020 ft 91 kts 291°
2026-04-27 10:11 71.16605 -77.26798 8036 ft 91 kts 292°
2026-04-27 10:11 71.16755 -77.28719 8048 ft 92 kts 292°
2026-04-27 10:11 71.16904 -77.30644 8060 ft 93 kts 291°
2026-04-27 10:12 71.17054 -77.32571 8062 ft 92 kts 291°
2026-04-27 10:12 71.17204 -77.34506 8067 ft 92 kts 291°
2026-04-27 10:12 71.17355 -77.36438 8044 ft 94 kts 291°
2026-04-27 10:12 71.17510 -77.38426 8006 ft 96 kts 291°
2026-04-27 10:13 71.17667 -77.40451 7974 ft 97 kts 291°
2026-04-27 10:13 71.17824 -77.42508 7944 ft 97 kts 291°
2026-04-27 10:13 71.17981 -77.44549 7911 ft 97 kts 291°
2026-04-27 10:13 71.18137 -77.46584 7882 ft 98 kts 291°
2026-04-27 10:14 71.18293 -77.48622 7832 ft 98 kts 291°
2026-04-27 10:14 71.18450 -77.50667 7781 ft 98 kts 291°
2026-04-27 10:14 71.18607 -77.52716 7708 ft 97 kts 291°
2026-04-27 10:14 71.18763 -77.54761 7630 ft 97 kts 291°
2026-04-27 10:15 71.18916 -77.56779 7547 ft 97 kts 291°
2026-04-27 10:15 71.19072 -77.58813 7470 ft 97 kts 291°
2026-04-27 10:15 71.19227 -77.60844 7388 ft 97 kts 291°
2026-04-27 10:15 71.19382 -77.62878 7303 ft 97 kts 291°
2026-04-27 10:16 71.19536 -77.64907 7222 ft 97 kts 290°
2026-04-27 10:16 71.19690 -77.66935 7152 ft 97 kts 290°
2026-04-27 10:16 71.19846 -77.68993 7085 ft 96 kts 290°
2026-04-27 10:16 71.19995 -77.70976 7066 ft 93 kts 290°
2026-04-27 10:17 71.20143 -77.72931 7063 ft 93 kts 290°
2026-04-27 10:17 71.20291 -77.74877 7019 ft 95 kts 291°
2026-04-27 10:17 71.20445 -77.76917 6957 ft 97 kts 290°
2026-04-27 10:17 71.20598 -77.78945 6891 ft 98 kts 290°
2026-04-27 10:18 71.20755 -77.81023 6822 ft 99 kts 290°
2026-04-27 10:18 71.20914 -77.83134 6764 ft 100 kts 290°
2026-04-27 10:18 71.21068 -77.85202 6703 ft 99 kts 289°
2026-04-27 10:18 71.21224 -77.87297 6636 ft 99 kts 289°
2026-04-27 10:19 71.21380 -77.89387 6574 ft 99 kts 289°
2026-04-27 10:19 71.21535 -77.91471 6508 ft 99 kts 289°
2026-04-27 10:19 71.21690 -77.93573 6444 ft 100 kts 289°
2026-04-27 10:19 71.21845 -77.95664 6379 ft 100 kts 289°
2026-04-27 10:20 71.22002 -77.97792 6314 ft 100 kts 289°
2026-04-27 10:20 71.22158 -77.99895 6249 ft 100 kts 289°
2026-04-27 10:20 71.22311 -78.01976 6204 ft 100 kts 289°
2026-04-27 10:20 71.22467 -78.04089 6162 ft 100 kts 289°
2026-04-27 10:21 71.22624 -78.06216 6120 ft 100 kts 289°
2026-04-27 10:21 71.22779 -78.08320 6077 ft 101 kts 289°
2026-04-27 10:21 71.22934 -78.10427 6070 ft 100 kts 289°
2026-04-27 10:21 71.23091 -78.12554 6026 ft 101 kts 288°
2026-04-27 10:22 71.23246 -78.14681 5982 ft 102 kts 288°
2026-04-27 10:22 71.23402 -78.16819 5929 ft 102 kts 288°
2026-04-27 10:22 71.23559 -78.18981 5872 ft 102 kts 288°
2026-04-27 10:22 71.23714 -78.21125 5821 ft 102 kts 288°
2026-04-27 10:23 71.23870 -78.23263 5773 ft 102 kts 288°
2026-04-27 10:23 71.24026 -78.25427 5731 ft 103 kts 288°
2026-04-27 10:23 71.24183 -78.27599 5669 ft 103 kts 288°
2026-04-27 10:23 71.24338 -78.29733 5611 ft 103 kts 288°
2026-04-27 10:24 71.24496 -78.31924 5550 ft 103 kts 288°
2026-04-27 10:24 71.24651 -78.34078 5492 ft 103 kts 288°
2026-04-27 10:24 71.24806 -78.36246 5440 ft 103 kts 288°
2026-04-27 10:24 71.24963 -78.38432 5385 ft 104 kts 288°
2026-04-27 10:25 71.25120 -78.40630 5319 ft 104 kts 288°
2026-04-27 10:25 71.25277 -78.42830 5258 ft 104 kts 288°
2026-04-27 10:25 71.25433 -78.45019 5191 ft 104 kts 288°
2026-04-27 10:25 71.25590 -78.47208 5120 ft 104 kts 287°
2026-04-27 10:26 71.25742 -78.49367 5104 ft 101 kts 288°
2026-04-27 10:26 71.25893 -78.51490 5100 ft 100 kts 288°
2026-04-27 10:26 71.26041 -78.53575 5100 ft 99 kts 288°
2026-04-27 10:26 71.26192 -78.55682 5101 ft 99 kts 288°
2026-04-27 10:27 71.26337 -78.57739 5100 ft 99 kts 288°
2026-04-27 10:27 71.26485 -78.59836 5100 ft 99 kts 288°
2026-04-27 10:27 71.26634 -78.61935 5099 ft 99 kts 288°
2026-04-27 10:27 71.26779 -78.64002 5096 ft 99 kts 288°
2026-04-27 10:28 71.26925 -78.66081 5096 ft 98 kts 287°
2026-04-27 10:28 71.27071 -78.68172 5095 ft 98 kts 287°
2026-04-27 10:28 71.27217 -78.70245 5097 ft 98 kts 287°
2026-04-27 10:28 71.27361 -78.72303 5096 ft 98 kts 287°
2026-04-27 10:29 71.27506 -78.74390 5101 ft 99 kts 287°
2026-04-27 10:29 71.27653 -78.76512 5100 ft 99 kts 287°
2026-04-27 10:29 71.27797 -78.78603 5096 ft 99 kts 287°
2026-04-27 10:29 71.27943 -78.80705 5028 ft 102 kts 286°
2026-04-27 10:30 71.28091 -78.82889 4925 ft 101 kts 286°
2026-04-27 10:30 71.28235 -78.85021 4834 ft 101 kts 286°
2026-04-27 10:30 71.28378 -78.87148 4742 ft 101 kts 286°
2026-04-27 10:30 71.28523 -78.89275 4654 ft 101 kts 286°
2026-04-27 10:31 71.28667 -78.91399 4561 ft 100 kts 286°
2026-04-27 10:31 71.28814 -78.93551 4468 ft 100 kts 285°
2026-04-27 10:31 71.28958 -78.95667 4382 ft 100 kts 285°
2026-04-27 10:31 71.29102 -78.97804 4283 ft 100 kts 285°
2026-04-27 10:32 71.29247 -78.99933 4195 ft 100 kts 285°
2026-04-27 10:32 71.29391 -79.02054 4108 ft 100 kts 285°
2026-04-27 10:32 71.29531 -79.04126 4096 ft 97 kts 285°
2026-04-27 10:32 71.29672 -79.06185 4092 ft 96 kts 285°
2026-04-27 10:33 71.29808 -79.08201 4091 ft 95 kts 286°
2026-04-27 10:33 71.29942 -79.10189 4100 ft 94 kts 286°
2026-04-27 10:33 71.30080 -79.12216 4095 ft 95 kts 286°
2026-04-27 10:33 71.30215 -79.14208 4098 ft 95 kts 286°
2026-04-27 10:34 71.30353 -79.16258 4103 ft 95 kts 286°
2026-04-27 10:34 71.30489 -79.18275 4105 ft 96 kts 286°
2026-04-27 10:34 71.30608 -79.20315 4088 ft 96 kts 281°
2026-04-27 10:34 71.30705 -79.22414 3997 ft 101 kts 282°
2026-04-27 10:35 71.30816 -79.24545 3964 ft 97 kts 286°
2026-04-27 10:35 71.31019 -79.26437 4012 ft 90 kts 296°
2026-04-27 10:35 71.31329 -79.28210 3698 ft 105 kts 302°
2026-04-27 10:35 71.31763 -79.29959 3527 ft 91 kts 316°
2026-04-27 10:36 71.32251 -79.30923 3511 ft 81 kts 324°
2026-04-27 10:36 71.32712 -79.31789 3485 ft 75 kts 324°
2026-04-27 10:36 71.33150 -79.32647 3406 ft 74 kts 324°
2026-04-27 10:36 71.33558 -79.33691 3198 ft 84 kts 307°
2026-04-27 10:37 71.33933 -79.35218 2762 ft 97 kts 303°
2026-04-27 10:37 71.34332 -79.36861 2451 ft 91 kts 307°
2026-04-27 10:37 71.34534 -79.38452 2332 ft 81 kts 253°
2026-04-27 10:37 71.33965 -79.39225 1721 ft 127 kts 173°
2026-04-27 10:38 71.33193 -79.38554 1398 ft 98 kts 141°
2026-04-27 10:38 71.32774 -79.37592 1470 ft 57 kts 123°
2026-04-27 10:38 71.32558 -79.37000 1494 ft 28 kts 120°
2026-04-27 10:38 71.32434 -79.36754 1405 ft 21 kts 116°
2026-04-27 10:39 71.32343 -79.36308 1566 ft 34 kts 97°
2026-04-27 10:39 71.32266 -79.35704 1734 ft 20 kts 103°
2026-04-27 10:39 71.32201 -79.35484 1581 ft 11 kts 90°
2026-04-27 10:39 71.32139 -79.35319 1365 ft 15 kts 68°
2026-04-27 10:40 71.32088 -79.35172 1203 ft 8 kts 71°
2026-04-27 10:40 71.32053 -79.35123 1132 ft 8 kts 59°
2026-04-27 10:40 71.32038 -79.34994 986 ft 18 kts 44°
2026-04-27 10:40 71.32168 -79.34588 938 ft 21 kts 31°
2026-04-27 10:41 71.32181 -79.34491 774 ft 13 kts 34°
2026-04-27 10:41 71.32246 -79.34335 743 ft 7 kts 37°
2026-04-27 10:41 71.32281 -79.34356 634 ft 7 kts 28°
2026-04-27 10:41 71.32304 -79.34317 602 ft 4 kts 35°
2026-04-27 10:42 71.32319 -79.34277 592 ft 1 kts 33°
2026-04-27 10:42 71.32325 -79.34261 583 ft 1 kts 31°
2026-04-27 10:42 71.32325 -79.34258 582 ft 0 kts 34°